Volver al catálogo

STARLINK-3725

ActivoComunicacionesVLEO
NORAD 52123·PAYLOAD·🇺🇸 United States

Lanzado Mar 19, 2022 desde Cape Canaveral Space Force Station

Loading…

Próximos Pases (próximas 24 horas)

TLE

ActualizadoSource: CelesTrak SupGP

Época: Sep 15, 2026, 01:37 UTC

1 52123C 22029AM  26258.06784722  .00032173  00000+0  92048-3 0  2586
2 52123  53.1590 294.9813 0001121  94.3431 164.2902 15.35382880    11

Sigue STARLINK-3725 en tiempo real con AllMySat

Download on the App Store